FW0261 Weather Reports


time (UTC)temp
C
wind
direction
speed
KPH
gust
KPH
rain 1hr
cm
rain 24hr
cm
rain mn
cm
humidity
%
barometer
mb
20260505040903 11 0 0.0 0.0 0.05 0.30 0.30 99 1015.5
20260505040004 11 0 0.0 0.0 0.05 0.30 0.30 99 1015.5
20260505035403 11 0 0.0 0.0 0.05 0.28 0.28 99 1015.6
20260505034503 11 0 0.0 0.0 0.05 0.28 0.28 99 1015.6
20260505033603 11 0 0.0 0.0 0.05 0.28 0.28 99 1015.5
20260505032703 11 0 0.0 0.0 0.05 0.28 0.28 99 1015.8
20260505031803 11 0 0.0 1.6 0.03 0.23 0.23 99 1015.9
20260505030904 11 0 0.0 1.6 0.03 0.23 0.23 99 1015.9
20260505030004 11 0 0.0 0.0 0.05 0.23 0.23 99 1016.1
20260505025403 11 0 0.0 0.0 0.03 0.20 0.20 99 1016.2
20260505024503 11 0 0.0 0.0 0.03 0.20 0.20 99 1016.2
20260505023603 11 0 0.0 0.0 0.03 0.20 0.20 99 1016.3
20260505022724 11 0 0.0 0.0 0.05 0.20 0.20 99 1016.4
20260505021824 11 0 0.0 0.0 0.05 0.20 0.20 99 1016.5
20260505020924 11 0 0.0 0.0 0.10 0.20 0.20 99 1016.7
20260505020024 11 0 0.0 0.0 0.05 0.18 0.18 99 1016.8
20260505015403 11 0 0.0 0.0 0.10 0.18 0.18 99 1016.7
20260505014503 11 0 0.0 0.0 0.13 0.18 0.18 98 1017.0
20260505013603 11 0 0.0 0.0 0.13 0.18 0.18 98 1017.1
20260505012703 11 0 0.0 1.6 0.13 0.15 0.15 97 1017.2
20260505011803 12 0 0.0 0.0 0.13 0.15 0.15 97 1017.3
20260505010903 12 0 0.0 0.0 0.13 0.13 0.15 96 1017.4
20260505010003 12 0 0.0 0.0 0.13 0.13 0.13 95 1017.3
20260505005403 12 0 0.0 0.0 0.10 0.10 0.10 95 1017.5
20260505004503 12 0 0.0 0.0 0.05 0.05 0.05 94 1017.6
20260505003603 12 0 0.0 1.6 0.05 0.05 0.05 90 1017.7
20260505002703 12 0 0.0 0.0 0.03 0.03 0.03 90 1017.8
20260505001803 12 0 0.0 0.0 0.03 0.03 0.03 89 1018.0
20260505000903 13 0 0.0 0.0 0.00 0.00 0.00 88 1018.2
20260505000003 13 0 0.0 0.0 0.00 0.00 0.00 87 1018.3
20260504235428 13 0 0.0 0.0 0.00 0.00 0.00 87 1018.3
20260504234507 13 0 0.0 0.0 0.00 0.00 0.00 86 1018.4
20260504233606 13 0 0.0 0.0 0.00 0.00 0.00 85 1018.4
20260504232707 13 0 0.0 0.0 0.00 0.00 0.00 84 1018.5
20260504231807 13 95 0.0 3.2 0.00 0.00 0.00 84 1018.7
20260504230927 13 133 1.6 6.4 0.00 0.00 0.00 85 1018.8
20260504230007 13 105 1.6 6.4 0.00 0.00 0.00 87 1018.9
20260504225428 13 88 1.6 6.4 0.00 0.00 0.00 88 1019.1
20260504224507 13 80 0.0 4.8 0.00 0.00 0.00 88 1019.1
20260504223606 13 88 1.6 4.8 0.00 0.00 0.00 89 1019.1
20260504222706 13 105 1.6 4.8 0.00 0.00 0.00 89 1019.1
20260504221806 13 99 1.6 4.8 0.00 0.00 0.00 89 1019.1
20260504220906 13 90 0.0 3.2 0.00 0.00 0.00 89 1019.2
20260504220007 13 76 0.0 3.2 0.00 0.00 0.00 88 1019.3
20260504215406 13 90 0.0 3.2 0.00 0.00 0.00 88 1019.4
20260504214506 13 89 0.0 3.2 0.00 0.00 0.00 87 1019.4
20260504213627 13 82 0.0 3.2 0.00 0.00 0.00 86 1019.6
20260504212706 13 87 0.0 3.2 0.00 0.00 0.00 86 1019.6
20260504211827 13 86 1.6 4.8 0.00 0.00 0.00 85 1019.6
20260504210906 13 72 1.6 4.8 0.00 0.00 0.00 84 1019.5
20260504210006 13 78 1.6 8.0 0.00 0.00 0.00 83 1019.4
20260504205406 13 76 0.0 3.2 0.00 0.00 0.00 83 1019.6
20260504204506 13 85 0.0 4.8 0.00 0.00 0.00 82 1019.8
20260504203606 13 95 0.0 3.2 0.00 0.00 0.00 81 1019.8
20260504202706 13 93 0.0 3.2 0.00 0.00 0.00 80 1019.8
20260504201827 13 90 0.0 3.2 0.00 0.00 0.00 80 1019.8
20260504200906 13 0 0.0 1.6 0.00 0.00 0.00 79 1019.8
20260504200006 13 87 0.0 3.2 0.00 0.00 0.00 78 1019.9
20260504195406 13 90 0.0 3.2 0.00 0.00 0.00 78 1019.9
20260504194506 13 77 0.0 3.2 0.00 0.00 0.00 77 1020.0
20260504193606 13 0 0.0 1.6 0.00 0.00 0.00 76 1019.7
20260504192706 13 0 0.0 1.6 0.00 0.00 0.00 75 1019.7
20260504191806 13 0 0.0 1.6 0.00 0.00 0.00 74 1019.5
20260504190906 13 73 0.0 3.2 0.00 0.00 0.00 74 1019.5
20260504190006 13 91 0.0 3.2 0.00 0.00 0.00 73 1019.4
20260504185406 13 100 0.0 3.2 0.00 0.00 0.00 72 1019.4
20260504184506 14 71 0.0 3.2 0.00 0.00 0.00 71 1019.4
20260504183606 14 42 0.0 3.2 0.00 0.00 0.00 70 1019.5
20260504182706 15 90 0.0 3.2 0.00 0.00 0.00 70 1019.5
20260504181806 15 83 0.0 3.2 0.00 0.00 0.00 69 1019.5
20260504180906 15 91 0.0 3.2 0.00 0.00 0.00 67 1019.5
20260504180006 15 93 0.0 4.8 0.00 0.00 0.00 66 1019.5
20260504175406 15 85 0.0 4.8 0.00 0.00 0.00 66 1019.6
20260504174506 15 0 0.0 1.6 0.00 0.00 0.00 66 1019.5
20260504173606 15 0 0.0 1.6 0.00 0.00 0.00 65 1019.4
20260504172706 16 80 0.0 3.2 0.00 0.00 0.00 64 1019.5
20260504171827 16 73 0.0 3.2 0.00 0.00 0.00 62 1019.5
20260504170905 16 111 0.0 3.2 0.00 0.00 0.00 61 1019.3
20260504150905 18 103 0.0 4.8 0.00 0.00 0.00 47 1019.8
20260504140926 19 90 1.6 3.2 0.00 0.00 0.00 44 1019.9
20260504081804 25 0 0.0 0.0 0.00 0.00 0.00 32 1021.2
20260504080904 24 0 0.0 1.6 0.00 0.00 0.00 35 1021.4
20260504050025 12 0 0.0 1.6 0.00 0.00 0.00 96 1020.5